Home   Weather   Germany   Heringsdorf   Past weeks
Flag for Germany

Past Weather in Heringsdorf, Mecklenburg-Western Pomerania, Germany — Yesterday and Last 2 Weeks

Currently: 37 °F. Mostly cloudy. (Weather station: Heringsdorf, Germany). See more current weather

Past Weather in Heringsdorf — Graph

°F

Heringsdorf Temperature Yesterday

Maximum temperature yesterday: 48 °F (at 10:50 am)
Minimum temperature yesterday: 34 °F (at 5:50 am)
Average temperature yesterday: 41 °F

High & Low Weather Summary for the Past Weeks

 TemperatureHumidityPressure
High55 °F (Feb 16, 1:50 pm)100% (Feb 12, 5:20 am)30.54 "Hg (Feb 12, 5:20 am)
Low30 °F (Feb 18, 2:20 am)54% (Feb 23, 1:20 pm)29.00 "Hg (Feb 22, 11:50 pm)
Average44 °F88%29.85 "Hg
* Reported Feb 12 5:20 am — Feb 27 5:20 am, Heringsdorf. Weather by CustomWeather, © 2024

Note: Actual official high and low records may vary slightly from our data, if they occured in-between our weather recording intervals... More about our weather records

Heringsdorf Weather History for the Previous 24 Hours

Scroll right to see more
 ConditionsComfort  
Time TempWeatherWind HumidityBarometerVisibility
5:20 am
Tue, Feb 27
37 °FLow clouds.14 mph100%29.98 "Hg2 mi
4:50 am37 °FLow clouds.14 mph100%29.95 "Hg3 mi
4:20 am39 °FLow clouds.15 mph93%29.95 "Hg3 mi
3:50 am39 °FLow clouds.12 mph100%29.95 "HgN/A
2:50 am39 °FPassing clouds.12 mph93%29.95 "HgN/A
2:20 am39 °FPassing clouds.12 mph93%29.95 "HgN/A
1:50 am39 °FClear.12 mph93%29.92 "HgN/A
12:20 am39 °FClear.9 mph93%29.92 "HgN/A
11:50 pm
Mon, Feb 26
39 °FPassing clouds.9 mph93%29.92 "HgN/A
11:20 pm41 °FPassing clouds.12 mph87%29.92 "HgN/A
10:50 pm41 °FPassing clouds.10 mph87%29.92 "HgN/A
9:50 pm41 °FOvercast.9 mph87%29.89 "HgN/A
9:20 pm41 °FOvercast.12 mph87%29.89 "HgN/A
8:50 pm41 °FPassing clouds.9 mph87%29.89 "HgN/A
8:20 pm39 °FClear.8 mph93%29.89 "HgN/A
7:50 pm39 °FClear.9 mph93%29.86 "HgN/A
7:20 pm41 °FPassing clouds.9 mph87%29.86 "HgN/A
6:50 pm41 °FPassing clouds.10 mph87%29.86 "HgN/A
6:20 pm41 °FPartly cloudy.7 mph87%29.86 "HgN/A
5:50 pm41 °FOvercast.7 mph87%29.83 "HgN/A
5:20 pm43 °FOvercast.9 mph81%29.83 "HgN/A
4:50 pm43 °FSunny.7 mph81%29.83 "Hg10 mi
4:20 pm43 °FPassing clouds.8 mph81%29.80 "HgN/A
3:50 pm45 °FSunny.8 mph76%29.80 "Hg10 mi
3:20 pm46 °FPassing clouds.7 mph71%29.80 "HgN/A
2:50 pm46 °FSunny.7 mph71%29.80 "Hg10 mi
2:20 pm46 °FPassing clouds.7 mph76%29.77 "HgN/A
1:50 pm48 °FPassing clouds.6 mph66%29.77 "HgN/A
1:20 pm48 °FPassing clouds.5 mph71%29.77 "HgN/A
12:50 pm48 °FPassing clouds.5 mph71%29.77 "HgN/A
12:20 pm45 °FSunny.5 mph87%29.77 "Hg10 mi
11:20 am48 °FSunny.2 mph71%29.77 "Hg10 mi
10:50 am48 °FSunny.2 mph71%29.77 "Hg10 mi
10:20 am46 °FSunny.2 mph71%29.77 "Hg10 mi
9:50 am45 °FFog.2 mph81%29.74 "Hg1 mi
9:20 am43 °FPassing clouds.3 mph93%29.74 "HgN/A
8:50 am39 °FClear.3 mph100%29.74 "Hg6 mi
8:20 am37 °FSunny.1 mph100%29.74 "Hg1 mi
7:50 am36 °FSunny.2 mph100%29.74 "Hg0 mi
7:20 am36 °FSunny.2 mph100%29.71 "Hg0 mi
6:50 am36 °FClear.3 mph100%29.71 "Hg0 mi
6:20 am36 °FClear.3 mph93%29.71 "Hg1 mi
Weather by CustomWeather, © 2024

See weather overview